User: anonymous   Login
Location: Unspecified
(0.0000°N, 0.0000°E)
Time: 22:24:52
(UTC+01:00)
Language:

Cosmos 1092 Rocket - Orbit

View from above orbital plane
View from above orbital plane
View from above satellite
View from above satellite

Ground track
Ground track

The orbit data is extracted from the following two-line orbital elements,

1 11327U 79030B   16044.33146220  .00000037  00000-0  21314-4 0  9994
2 11327  82.9510 299.5816 0028912 109.8313  28.8882 13.76976866851726
Epoch (UTC): 13 February 2016 07:57:18
Eccentricity: 0.0028912
inclination: 82.9510°
perigee height: 953 km
apogee height: 996 km
right ascension of ascending node: 299.5816°
argument of perigee: 109.8313°
revolutions per day: 13.76976866
mean anomaly at epoch: 28.8882°
orbit number at epoch: 85172

The dashed part of the orbit path shows where the satellite is in the earth's shadow,  

DLR